Location: Cahas Mountain Overlook
(37.0833°N, 80.1000°W)
Time: 12:06:13
(UTC-05:00)

Courier 1B - Pass Details

Date: 12 December 2023
Orbit: 962 x 1209 km, 28.3° (Epoch: 29 February)

Event Time Altitude Azimuth Distance (km) Brightness Sun altitude
Rises 10:44:14 0° 264° (W) 3,844 10.5 26.2°
Reaches altitude 10° 10:47:26 10° 253° (WSW) 2,846 10.0 26.5°
Maximum altitude 10:53:06 28° 198° (SSW) 1,796 10.0 26.9°
Drops below altitude 10° 10:58:33 10° 142° (SE) 2,721 11.3 27.3°
Sets 11:01:32 0° 130° (SE) 3,646 11.4 27.4°
